TimeEST,TemperatureF,Dew PointF,Humidity,Sea Level PressureIn,VisibilityMPH,Wind Direction,Wind SpeedMPH,Gust SpeedMPH,PrecipitationIn,Events,Conditions,WindDirDegrees,DateUTC
12:17 AM,8.6,1.4,73,29.94,10.0,West,13.8,24.2,N/A,,Overcast,280,2014-02-24 05:17:00
12:37 AM,8.4,1.4,73,29.93,10.0,West,13.8,17.3,N/A,,Overcast,270,2014-02-24 05:37:00
12:57 AM,7.9,1.4,75,29.93,10.0,West,17.3,21.9,N/A,,Overcast,270,2014-02-24 05:57:00
1:17 AM,8.2,2.7,78,29.94,10.0,West,13.8,-,N/A,,Overcast,270,2014-02-24 06:17:00
1:37 AM,8.2,3.2,80,29.93,10.0,West,16.1,20.7,N/A,,Overcast,270,2014-02-24 06:37:00
1:57 AM,8.6,4.1,82,29.93,10.0,West,15.0,20.7,N/A,,Overcast,260,2014-02-24 06:57:00
2:17 AM,8.4,4.1,83,29.93,10.0,West,16.1,-,N/A,,Overcast,270,2014-02-24 07:17:00
2:37 AM,8.1,4.1,84,29.93,10.0,West,13.8,-,N/A,,Scattered Clouds,270,2014-02-24 07:37:00
2:57 AM,8.1,3.2,81,29.93,10.0,West,12.7,18.4,N/A,,Clear,280,2014-02-24 07:57:00
3:17 AM,7.7,2.3,79,29.93,10.0,West,11.5,18.4,N/A,,Scattered Clouds,280,2014-02-24 08:17:00
3:37 AM,7.7,2.3,79,29.93,10.0,West,12.7,-,N/A,,Scattered Clouds,270,2014-02-24 08:37:00
3:57 AM,7.5,2.8,81,29.93,10.0,West,13.8,-,N/A,,Mostly Cloudy,280,2014-02-24 08:57:00
4:17 AM,7.2,2.7,82,29.93,10.0,West,13.8,18.4,N/A,,Scattered Clouds,270,2014-02-24 09:17:00
4:37 AM,6.8,2.7,83,29.93,10.0,West,13.8,-,N/A,,Scattered Clouds,270,2014-02-24 09:37:00
4:57 AM,6.8,3.2,85,29.94,10.0,West,15.0,-,N/A,,Overcast,270,2014-02-24 09:57:00
5:17 AM,6.6,3.2,86,29.94,10.0,West,12.7,20.7,N/A,,Mostly Cloudy,270,2014-02-24 10:17:00
5:37 AM,6.6,3.2,86,29.95,10.0,West,15.0,18.4,N/A,,Scattered Clouds,270,2014-02-24 10:37:00
5:57 AM,6.4,3.0,86,29.95,10.0,West,15.0,18.4,N/A,,Overcast,270,2014-02-24 10:57:00
6:17 AM,6.4,3.2,87,29.95,10.0,West,15.0,19.6,N/A,,Scattered Clouds,270,2014-02-24 11:17:00
6:37 AM,6.3,3.0,87,29.95,10.0,West,15.0,20.7,N/A,,Scattered Clouds,270,2014-02-24 11:37:00
6:57 AM,6.4,3.2,87,29.96,10.0,West,16.1,23.0,N/A,,Mostly Cloudy,270,2014-02-24 11:57:00
7:17 AM,6.6,3.2,86,29.96,7.0,West,16.1,-,N/A,,Mostly Cloudy,270,2014-02-24 12:17:00
7:37 AM,6.4,2.7,84,29.97,10.0,West,16.1,21.9,N/A,,Mostly Cloudy,270,2014-02-24 12:37:00
7:57 AM,5.9,2.3,85,29.97,10.0,West,16.1,-,N/A,,Scattered Clouds,270,2014-02-24 12:57:00
8:17 AM,5.9,2.3,85,29.98,10.0,West,16.1,20.7,N/A,,Clear,270,2014-02-24 13:17:00
8:37 AM,6.4,2.3,83,29.98,10.0,West,16.1,-,N/A,,Clear,270,2014-02-24 13:37:00
8:57 AM,6.8,2.3,82,29.99,10.0,West,15.0,21.9,N/A,,Clear,270,2014-02-24 13:57:00
9:17 AM,7.5,2.3,79,29.99,10.0,West,16.1,-,N/A,,Clear,270,2014-02-24 14:17:00
9:37 AM,7.7,2.3,79,29.99,10.0,West,18.4,23.0,N/A,,Clear,270,2014-02-24 14:37:00
9:57 AM,8.6,2.3,76,30.00,10.0,West,15.0,-,N/A,,Clear,270,2014-02-24 14:57:00
10:18 AM,9.5,2.8,74,30.00,10.0,West,18.4,-,N/A,,Clear,270,2014-02-24 15:18:00
10:37 AM,10.4,2.7,71,30.00,10.0,West,17.3,21.9,N/A,,Clear,270,2014-02-24 15:37:00
10:58 AM,11.1,2.3,68,30.00,10.0,West,18.4,23.0,N/A,,Mostly Cloudy,270,2014-02-24 15:58:00
11:17 AM,10.8,1.9,68,30.01,10.0,West,18.4,24.2,N/A,,Overcast,270,2014-02-24 16:17:00
11:37 AM,11.8,3.0,68,30.01,10.0,West,17.3,23.0,N/A,,Overcast,270,2014-02-24 16:37:00
11:57 AM,11.3,2.7,68,30.01,7.0,West,16.1,-,N/A,,Overcast,260,2014-02-24 16:57:00
12:18 PM,11.3,3.0,69,30.02,10.0,West,13.8,24.2,N/A,,Overcast,260,2014-02-24 17:18:00
12:37 PM,12.0,2.5,66,30.02,10.0,West,17.3,23.0,N/A,,Overcast,260,2014-02-24 17:37:00
12:57 PM,11.1,2.7,69,30.02,7.0,West,18.4,24.2,N/A,,Overcast,260,2014-02-24 17:57:00
1:18 PM,11.1,4.5,75,30.02,1.2,West,19.6,25.3,N/A,,Haze,260,2014-02-24 18:18:00
1:37 PM,12.0,4.1,71,30.02,7.0,West,17.3,24.2,N/A,,Overcast,270,2014-02-24 18:37:00
1:57 PM,12.6,2.3,64,30.02,7.0,West,18.4,24.2,N/A,,Overcast,270,2014-02-24 18:57:00
2:18 PM,12.6,0.3,58,30.02,10.0,West,20.7,25.3,N/A,,Mostly Cloudy,270,2014-02-24 19:18:00
2:37 PM,12.4,1.9,63,30.03,10.0,West,19.6,25.3,N/A,,Overcast,270,2014-02-24 19:37:00
2:57 PM,13.6,2.3,61,30.03,10.0,West,19.6,25.3,N/A,,Scattered Clouds,270,2014-02-24 19:57:00
3:18 PM,13.3,2.3,62,30.03,10.0,West,18.4,21.9,N/A,,Mostly Cloudy,270,2014-02-24 20:18:00
3:37 PM,13.6,1.9,60,30.04,10.0,West,17.3,25.3,N/A,,Mostly Cloudy,270,2014-02-24 20:37:00
3:57 PM,12.9,2.3,63,30.05,10.0,West,17.3,25.3,N/A,,Overcast,270,2014-02-24 20:57:00
4:17 PM,12.2,2.7,66,30.05,10.0,West,18.4,-,N/A,,Overcast,270,2014-02-24 21:17:00
4:37 PM,12.2,3.4,68,30.05,10.0,West,18.4,21.9,N/A,,Overcast,270,2014-02-24 21:37:00
4:58 PM,11.7,2.8,68,30.06,10.0,West,19.6,-,N/A,,Mostly Cloudy,270,2014-02-24 21:58:00
5:17 PM,11.3,3.4,70,30.07,10.0,West,15.0,23.0,N/A,,Mostly Cloudy,280,2014-02-24 22:17:00
5:37 PM,10.4,1.9,69,30.07,10.0,West,15.0,19.6,N/A,,Mostly Cloudy,280,2014-02-24 22:37:00
5:58 PM,9.5,1.6,70,30.08,10.0,West,13.8,21.9,N/A,,Scattered Clouds,280,2014-02-24 22:58:00
6:17 PM,8.6,1.6,73,30.08,10.0,West,12.7,18.4,N/A,,Clear,280,2014-02-24 23:17:00
6:37 PM,8.1,1.0,73,30.08,10.0,WNW,13.8,18.4,N/A,,Clear,290,2014-02-24 23:37:00
6:58 PM,7.5,1.4,76,30.09,10.0,WNW,10.4,-,N/A,,Clear,300,2014-02-24 23:58:00
7:17 PM,7.2,1.2,77,30.09,10.0,WNW,10.4,-,N/A,,Scattered Clouds,300,2014-02-25 00:17:00
7:38 PM,6.6,-0.2,74,30.10,10.0,NW,8.1,-,N/A,,Clear,310,2014-02-25 00:38:00
7:57 PM,6.3,-0.9,72,30.09,10.0,WNW,8.1,-,N/A,,Clear,300,2014-02-25 00:57:00
8:17 PM,5.9,-1.5,72,30.09,10.0,WNW,9.2,-,N/A,,Clear,290,2014-02-25 01:17:00
8:38 PM,5.5,-1.7,72,30.08,10.0,West,8.1,-,N/A,,Clear,270,2014-02-25 01:38:00
8:57 PM,5.0,-2.2,72,30.09,10.0,West,11.5,-,N/A,,Clear,270,2014-02-25 01:57:00
9:17 PM,4.8,-1.7,75,30.09,10.0,West,10.4,-,N/A,,Scattered Clouds,260,2014-02-25 02:17:00
9:37 PM,5.0,-1.3,75,30.10,10.0,West,10.4,-,N/A,,Mostly Cloudy,270,2014-02-25 02:37:00
9:57 PM,4.8,-0.8,78,30.10,10.0,West,11.5,-,N/A,,Overcast,270,2014-02-25 02:57:00
10:18 PM,5.5,0.3,79,30.10,10.0,West,10.4,-,N/A,,Overcast,270,2014-02-25 03:18:00
10:37 PM,6.6,1.9,81,30.10,7.0,West,10.4,-,N/A,,Overcast,270,2014-02-25 03:37:00
10:57 PM,7.2,2.7,82,30.10,10.0,West,10.4,-,N/A,,Overcast,280,2014-02-25 03:57:00
11:17 PM,7.7,3.4,83,30.09,10.0,West,6.9,10.4,N/A,,Overcast,280,2014-02-25 04:17:00
11:37 PM,7.7,4.1,85,30.09,5.0,West,10.4,-,N/A,Snow,Light Snow,280,2014-02-25 04:37:00
11:57 PM,8.1,4.6,86,30.08,4.0,WNW,9.2,-,N/A,Snow,Light Snow,290,2014-02-25 04:57:00